Location: Monteux
(44.0348°N, 4.9972°E)
Time: 14:11:59
(UTC+00:00)

Cosmos 2341 Rocket - Pass Details

Date: 30 November 2020
Orbit: 969 x 1004 km, 82.9° (Epoch: 27 January)

Event Time Altitude Azimuth Distance (km) Brightness Sun altitude
Rises 16:46:52 0° 352° (N) 3,699 6.9 -7.8°
Reaches altitude 10° 16:49:23 10° 354° (N) 2,752 6.2 -8.2°
Maximum altitude 16:55:43 80° 81° (E) 1,012 4.0 -9.3°
Drops below altitude 10° 17:02:04 10° 169° (S) 2,757 6.5 -10.4°
Sets 17:04:35 0° 171° (S) 3,706 7.2 -10.8°
